Stündliche Wetter Warnino

Heute, 24 Oktober, Samstag

Zeit Temperatur Niederschläge Wind Luftdruck Luftfeuchtigkeit
00:00 +12°C° 0.1 mm 2 m/S 754 mmHg 94%
01:00 +12°C° 0.1 mm 2 m/S 754 mmHg 94%
02:00 +10°C° 0 mm 2 m/S 754 mmHg 95%
03:00 +10°C° 0 mm 3 m/S 754 mmHg 96%
04:00 +10°C° 0 mm 3 m/S 754 mmHg 97%
05:00 +10°C° 0 mm 4 m/S 754 mmHg 96%
06:00 +10°C° 0 mm 4 m/S 754 mmHg 95%
07:00 +9°C° 0 mm 5 m/S 754 mmHg 95%
08:00 +10°C° 0 mm 5 m/S 755 mmHg 90%
09:00 +11°C° 0 mm 6 m/S 755 mmHg 86%
10:00 +12°C° 0 mm 7 m/S 755 mmHg 82%
11:00 +14°C° 0 mm 7 m/S 755 mmHg 79%
12:00 +14°C° 0 mm 7 m/S 755 mmHg 76%
13:00 +14°C° 0 mm 7 m/S 755 mmHg 73%
14:00 +14°C° 0 mm 6 m/S 755 mmHg 75%
15:00 +14°C° 0 mm 5 m/S 755 mmHg 77%
16:00 +13°C° 0 mm 5 m/S 755 mmHg 79%
17:00 +13°C° 0.1 mm 4 m/S 756 mmHg 81%
18:00 +12°C° 0.1 mm 4 m/S 756 mmHg 83%
19:00 +12°C° 0.1 mm 3 m/S 756 mmHg 85%
20:00 +12°C° 0.1 mm 4 m/S 756 mmHg 85%
21:00 +12°C° 0.1 mm 4 m/S 756 mmHg 85%
22:00 +12°C° 0.1 mm 4 m/S 756 mmHg 85%
23:00 +12°C° 0 mm 4 m/S 756 mmHg 86%

Morgen, 25 Oktober, Sonntag

Zeit Temperatur Niederschläge Wind Luftdruck Luftfeuchtigkeit
00:00 +12°C° 0 mm 4 m/S 756 mmHg 87%
01:00 +12°C° 0 mm 4 m/S 756 mmHg 89%
02:00 +11°C° 0 mm 4 m/S 756 mmHg 88%
03:00 +10°C° 0 mm 5 m/S 756 mmHg 88%
04:00 +10°C° 0 mm 5 m/S 755 mmHg 88%
05:00 +9°C° 0 mm 5 m/S 755 mmHg 89%
06:00 +9°C° 0 mm 5 m/S 755 mmHg 91%
07:00 +9°C° 0 mm 5 m/S 755 mmHg 92%
08:00 +10°C° 0 mm 6 m/S 755 mmHg 86%
09:00 +11°C° 0 mm 6 m/S 755 mmHg 80%
10:00 +14°C° 0 mm 7 m/S 755 mmHg 74%
11:00 +14°C° 0 mm 7 m/S 755 mmHg 70%
12:00 +15°C° 0 mm 7 m/S 755 mmHg 67%
13:00 +16°C° 0 mm 7 m/S 754 mmHg 63%
14:00 +15°C° 0 mm 6 m/S 754 mmHg 66%
15:00 +15°C° 0 mm 6 m/S 753 mmHg 68%
16:00 +14°C° 0 mm 5 m/S 753 mmHg 70%
17:00 +14°C° 0 mm 6 m/S 753 mmHg 72%
18:00 +13°C° 0 mm 6 m/S 753 mmHg 74%
19:00 +13°C° 0 mm 6 m/S 753 mmHg 75%
20:00 +13°C° 0 mm 6 m/S 753 mmHg 76%
21:00 +13°C° 0 mm 6 m/S 753 mmHg 77%
22:00 +13°C° 0 mm 6 m/S 752 mmHg 78%
23:00 +11°C° 0 mm 6 m/S 752 mmHg 80%

übermorgen, 26 Oktober, Montag

Zeit Temperatur Niederschläge Wind Luftdruck Luftfeuchtigkeit
00:00 +11°C° 0 mm 6 m/S 752 mmHg 82%
01:00 +12°C° 0 mm 5 m/S 752 mmHg 84%
02:00 +12°C° 0 mm 5 m/S 752 mmHg 85%
03:00 +10°C° 0 mm 5 m/S 752 mmHg 87%
04:00 +10°C° 0 mm 5 m/S 752 mmHg 88%
05:00 +11°C° 0 mm 4 m/S 752 mmHg 90%
06:00 +10°C° 0 mm 3 m/S 752 mmHg 91%
07:00 +10°C° 0 mm 3 m/S 751 mmHg 93%
08:00 +11°C° 0 mm 3 m/S 751 mmHg 89%
09:00 +12°C° 0 mm 3 m/S 751 mmHg 86%
10:00 +12°C° 0 mm 3 m/S 751 mmHg 82%
11:00 +13°C° 0 mm 3 m/S 751 mmHg 79%
12:00 +14°C° 0 mm 3 m/S 751 mmHg 77%
13:00 +16°C° 0 mm 3 m/S 751 mmHg 74%
14:00 +14°C° 0.1 mm 3 m/S 751 mmHg 78%
15:00 +14°C° 0.1 mm 2 m/S 751 mmHg 83%
16:00 +13°C° 0.1 mm 2 m/S 750 mmHg 87%
17:00 +13°C° 0.4 mm 2 m/S 751 mmHg 89%
18:00 +11°C° 0.4 mm 3 m/S 751 mmHg 91%
19:00 +11°C° 0.4 mm 3 m/S 751 mmHg 93%
20:00 +11°C° 0.2 mm 3 m/S 751 mmHg 93%
21:00 +11°C° 0.2 mm 3 m/S 752 mmHg 93%
22:00 +10°C° 0.2 mm 3 m/S 752 mmHg 92%
23:00 +10°C° 0 mm 3 m/S 752 mmHg 92%

, 27 Oktober, Dienstag

Zeit Temperatur Niederschläge Wind Luftdruck Luftfeuchtigkeit
00:00 +10°C° 0 mm 2 m/S 752 mmHg 92%
01:00 +9°C° 0 mm 2 m/S 752 mmHg 91%
02:00 +9°C° 0 mm 2 m/S 752 mmHg 91%
03:00 +9°C° 0 mm 2 m/S 753 mmHg 90%
04:00 +9°C° 0 mm 2 m/S 753 mmHg 89%
05:00 +9°C° 0 mm 2 m/S 753 mmHg 89%
06:00 +9°C° 0 mm 2 m/S 753 mmHg 89%
07:00 +9°C° 0 mm 2 m/S 753 mmHg 89%
08:00 +10°C° 0 mm 3 m/S 753 mmHg 85%
09:00 +11°C° 0 mm 3 m/S 754 mmHg 80%
10:00 +11°C° 0 mm 3 m/S 754 mmHg 76%
11:00 +12°C° 0 mm 3 m/S 754 mmHg 74%
12:00 +12°C° 0 mm 3 m/S 754 mmHg 72%
13:00 +12°C° 0 mm 3 m/S 754 mmHg 70%
14:00 +12°C° 0 mm 3 m/S 754 mmHg 74%
15:00 +11°C° 0 mm 3 m/S 754 mmHg 77%
16:00 +11°C° 0 mm 3 m/S 753 mmHg 81%
17:00 +11°C° 0 mm 4 m/S 754 mmHg 82%
18:00 +10°C° 0 mm 4 m/S 754 mmHg 83%
19:00 +10°C° 0 mm 4 m/S 754 mmHg 84%
20:00 +9°C° 0 mm 5 m/S 754 mmHg 84%
21:00 +9°C° 0 mm 5 m/S 754 mmHg 84%
22:00 +9°C° 0 mm 5 m/S 754 mmHg 84%
23:00 +8°C° 0 mm 5 m/S 754 mmHg 86%

27 Oktober, Dienstag

Zeit Temperatur Niederschläge Wind Luftdruck Luftfeuchtigkeit
00:00 +10°C° 0 mm 2 m/S 752 mmHg 92%
01:00 +9°C° 0 mm 2 m/S 752 mmHg 91%
02:00 +9°C° 0 mm 2 m/S 752 mmHg 91%
03:00 +9°C° 0 mm 2 m/S 753 mmHg 90%
04:00 +9°C° 0 mm 2 m/S 753 mmHg 89%
05:00 +9°C° 0 mm 2 m/S 753 mmHg 89%
06:00 +9°C° 0 mm 2 m/S 753 mmHg 89%
07:00 +9°C° 0 mm 2 m/S 753 mmHg 89%
08:00 +10°C° 0 mm 3 m/S 753 mmHg 85%
09:00 +11°C° 0 mm 3 m/S 754 mmHg 80%
10:00 +11°C° 0 mm 3 m/S 754 mmHg 76%
11:00 +12°C° 0 mm 3 m/S 754 mmHg 74%
12:00 +12°C° 0 mm 3 m/S 754 mmHg 72%
13:00 +12°C° 0 mm 3 m/S 754 mmHg 70%
14:00 +12°C° 0 mm 3 m/S 754 mmHg 74%
15:00 +11°C° 0 mm 3 m/S 754 mmHg 77%
16:00 +11°C° 0 mm 3 m/S 753 mmHg 81%
17:00 +11°C° 0 mm 4 m/S 754 mmHg 82%
18:00 +10°C° 0 mm 4 m/S 754 mmHg 83%
19:00 +10°C° 0 mm 4 m/S 754 mmHg 84%
20:00 +9°C° 0 mm 5 m/S 754 mmHg 84%
21:00 +9°C° 0 mm 5 m/S 754 mmHg 84%
22:00 +9°C° 0 mm 5 m/S 754 mmHg 84%
23:00 +8°C° 0 mm 5 m/S 754 mmHg 86%

28 Oktober, Mittwoch

Zeit Temperatur Niederschläge Wind Luftdruck Luftfeuchtigkeit
00:00 +8°C° 0 mm 5 m/S 754 mmHg 88%
01:00 +7°C° 0 mm 5 m/S 754 mmHg 90%
02:00 +7°C° 0 mm 5 m/S 754 mmHg 90%
03:00 +7°C° 0 mm 5 m/S 754 mmHg 90%
04:00 +5°C° 0 mm 6 m/S 754 mmHg 90%
05:00 +5°C° 0 mm 6 m/S 754 mmHg 89%
06:00 +5°C° 0 mm 6 m/S 754 mmHg 88%
07:00 +5°C° 0 mm 6 m/S 754 mmHg 87%
08:00 +6°C° 0 mm 7 m/S 754 mmHg 81%
09:00 +9°C° 0 mm 8 m/S 754 mmHg 75%
10:00 +10°C° 0 mm 8 m/S 754 mmHg 69%
11:00 +10°C° 0 mm 8 m/S 754 mmHg 70%
12:00 +10°C° 0 mm 8 m/S 754 mmHg 71%
13:00 +10°C° 0 mm 7 m/S 754 mmHg 73%
14:00 +9°C° 0 mm 7 m/S 754 mmHg 73%
15:00 +9°C° 0 mm 7 m/S 754 mmHg 74%
16:00 +9°C° 0 mm 6 m/S 754 mmHg 75%
17:00 +9°C° 0 mm 6 m/S 754 mmHg 75%
18:00 +9°C° 0 mm 6 m/S 754 mmHg 76%
19:00 +9°C° 0 mm 6 m/S 754 mmHg 77%
20:00 +8°C° 0 mm 6 m/S 754 mmHg 79%
21:00 +8°C° 0 mm 6 m/S 754 mmHg 81%
22:00 +8°C° 0 mm 6 m/S 754 mmHg 83%
23:00 +8°C° 0 mm 6 m/S 754 mmHg 83%

29 Oktober, Donnerstag

Zeit Temperatur Niederschläge Wind Luftdruck Luftfeuchtigkeit
00:00 +8°C° 0 mm 6 m/S 754 mmHg 83%
01:00 +8°C° 0 mm 6 m/S 754 mmHg 83%
02:00 +8°C° 0 mm 6 m/S 754 mmHg 83%
03:00 +8°C° 0 mm 6 m/S 754 mmHg 84%
04:00 +8°C° 0 mm 6 m/S 753 mmHg 84%
05:00 +8°C° 0 mm 6 m/S 753 mmHg 84%
06:00 +8°C° 0 mm 6 m/S 753 mmHg 85%
07:00 +8°C° 0 mm 6 m/S 753 mmHg 85%
08:00 +8°C° 0.1 mm 6 m/S 754 mmHg 84%
09:00 +9°C° 0.1 mm 7 m/S 754 mmHg 82%
10:00 +10°C° 0.1 mm 7 m/S 754 mmHg 81%
11:00 +10°C° 0.1 mm 7 m/S 754 mmHg 76%
12:00 +11°C° 0.1 mm 7 m/S 754 mmHg 71%
13:00 +11°C° 0.1 mm 8 m/S 755 mmHg 66%
14:00 +11°C° 0 mm 7 m/S 755 mmHg 68%
15:00 +10°C° 0 mm 6 m/S 755 mmHg 70%
16:00 +10°C° 0 mm 6 m/S 756 mmHg 73%
17:00 +9°C° 0 mm 6 m/S 756 mmHg 75%
18:00 +9°C° 0 mm 6 m/S 757 mmHg 77%
19:00 +8°C° 0 mm 6 m/S 757 mmHg 79%
20:00 +8°C° 0 mm 6 m/S 757 mmHg 78%
21:00 +8°C° 0 mm 6 m/S 757 mmHg 78%
22:00 +9°C° 0 mm 7 m/S 757 mmHg 78%
23:00 +9°C° 0 mm 7 m/S 757 mmHg 77%
Mehr zeigen

Wir brauchen deine Erlaubnis

Meteoprog und unser Service Anbieter werden persönliche Daten aufbewahren, so wie Cookies, Geräte Bezeichnung oder ähnliche Technologien von deinem Gerät und Prozess, so wie Persönliche Daten Inhalte und Werbungen, genauso wie social Media und den Verkehr zu analysieren.

  • Aufbewahrung und/oder Zugang zu deiner Geräte Informationen.

    Cookies, Geräte Bezeichnung oder andere Informationen, können aufbewahrt oder Zugang zu deinem Gerät erhalten, für den Grund, der oben angegeben wird.

  • Personalisierte Werbung und Inhalte, Messungen, Einblick in das Publikum und Produkt Entwicklung.

    Werbungen und Inhalte können personalisiert werden, basierend auf ein Profil. Mehr Daten können besser personalisierte Werbungen und Inhalte hinzufügen. Werbung und Inhalte können gezeigt und gemessen werden. Einblicke über das Publikum, welche die Werbung gesehen haben und den Inhalt, können abgeleitet werden. So wie Daten können genutzt werden, um es zu verbessern oder die Benutzer Erfahrung zu verbessern das System und die Software.

Wenn du “Ich stimme zu” klickst, erlaubst du uns, die Cookies zu benutzen die Geräte Bezeichnung, den Web oder ähnliche Technologien zu benutzen. Deine Settings, können in deinem Gerät bei deinem Browser geändert werden.

Für den bestimmten Zweck, berechtigten Interessen beruhen darauf, mehr als auf den Inhalt. Du kannst mehr darüber in unseren Privaten und Cookie Politik lesen.